Regional Weather Roundup
Issued by NWS

Home | Current Version | Previous Version | Graphics & Text | Print | Product List | Glossary On
Versions: 1 2 3 4 5 6 7 8 9 10 11 12 13 14 15 16 17 18 19 20 21 22 23 24 25 26 27 28 29 30 31 32 33 34 35 36 37 38 39 40 41 42 43 44 45 46 47 48 49 50
000
ASUS43 KIND 211700
RWRIN

WEATHER ROUNDUP FOR INDIANA
NATIONAL WEATHER SERVICE INDIANAPOLIS IN
100 PM EDT MON AUG 21 2017

NOTE: "FAIR" INDICATES FEW OR NO CLOUDS BELOW 12,000 FEET WITH NO
SIGNIFICANT WEATHER AND/OR OBSTRUCTIONS TO VISIBILITY.

* - STATION DOES NOT REPORT WEATHER SUCH AS PRECIPITATION OR FOG.

+ - STATION NOT QUALITY CONTROLLED BY THE NATIONAL WEATHER SERVICE.
    USE DATA WITH CAUTION...ESPECIALLY DEWPOINT AND RELATIVE
    HUMIDITY OBSERVATIONS.

INZ001>003-010>013-019-020-211800-
NORTHWEST INDIANA

CITY           SKY/WX    TMP DP  RH WIND       PRES   REMARKS
GARY /AIRPORT/ CLOUDY    84  68  58 W14       30.09S
MICHIGAN CITY+ MOSUNNY   82  68  61 W9G17     30.10R
MONTICELLO +   MOSUNNY   83  72  69 W12       30.10S
RENSSELAER +   PTSUNNY   82  66  57 W12G18    30.11R

$$

LMZ046-743>745-211800-
SOUTHERN LAKE MICHIGAN

STATION/POSITION TIME  TEMP    WIND        PRES    WAVE
                       AIR SEA DIR/SP/G            HT
                 (UTC) (F)     (DEG/KT/KT) (MB)    (FT)
BURNS HARBOR     1640   77     330/  5/  7 1019.0S
MICHIGAN CITY    1630   75     250/  9/  9   N/A
5NW MICH CITY    1650   75 75  270/  6/  8   N/A     1

$$

INZ004-005-014>016-021>024-211800-
NORTH CENTRAL INDIANA

CITY           SKY/WX    TMP DP  RH WIND       PRES   REMARKS
ELKHART        PTSUNNY   84  68  58 W14       30.09R
GOSHEN         MOSUNNY   85  69  58 SW14      30.09S
SOUTH BEND     CLOUDY    83  70  64 W13       30.10R

$$

INZ006>009-017-018-025>027-211800-
NORTHEAST INDIANA

CITY           SKY/WX    TMP DP  RH WIND       PRES   REMARKS
FORT WAYNE     CLOUDY    85  74  69 SW9       30.11S

$$

INZ028-029-035-036-043>045-051>053-211800-
WEST CENTRAL INDIANA

CITY           SKY/WX    TMP DP  RH WIND       PRES   REMARKS
LAFAYETTE      CLOUDY    84  74  71 SW9       30.11R
TERRE HAUTE    MOSUNNY   87  73  62 VRB6      30.12S

$$

INZ030>032-037>040-046>048-054>057-064-065-211800-
CENTRAL INDIANA

CITY           SKY/WX    TMP DP  RH WIND       PRES   REMARKS
ANDERSON       MOSUNNY   86  72  62 MISG      30.13S
COLUMBUS       MOSUNNY   90  59  35 SW9       30.14F
GREENWOOD *+   MOSUNNY   85  70  60 SW12      30.14F
INDIANAPOLIS   MOSUNNY   90  72  55 SW15      30.12S HX  97
-EAGLE CREEK   MOSUNNY   88  72  58 MISG      30.12S
KOKOMO +       CLOUDY    84  75  74 W8        30.13S
MT COMFORT *+  MOSUNNY   86  73  66 W8        30.13F
SHELBYVILLE    MOSUNNY   89  71  55 SW13      30.13S HX  95

$$

INZ033-034-041-042-049-050-058-059-211800-
EAST CENTRAL INDIANA

CITY           SKY/WX    TMP DP  RH WIND       PRES   REMARKS
MUNCIE         CLOUDY    87  73  62 W9G18     30.13S
RICHMOND +     MOSUNNY   82  70  65 SW7       30.17S

$$

INZ060-061-067>069-081>083-085>088-211800-
SOUTHWEST INDIANA

CITY           SKY/WX    TMP DP  RH WIND       PRES   REMARKS
EVANSVILLE     MOSUNNY   90  68  48 SW8       30.13F
HUNTINGBURG +  SUNNY     89  70  53 SW10      30.14F

$$

INZ062-063-066-070>080-084-089>092-211800-
SOUTH CENTRAL AND SOUTHEAST INDIANA

CITY           SKY/WX    TMP DP  RH WIND       PRES   REMARKS
BLOOMINGTON    MOSUNNY   89  71  55 SW12G20   30.14S HX  95
MADISON *+     SUNNY     88  66  48 S9        30.18F
SEYMOUR +      SUNNY     93  68  43 S7        30.13F HX  97

$$





USA.gov is the U.S. government's official web portal to all federal, state and local government web resources and services.